KORFKECG

Guest
Details From KORF - Norfolk Intl
To KECG - Elizabeth City Cgas Rgnl
Flight Number -
Tags Routegen Generated
Created
Modified
Stats Distance 44 nm / 82 km
Max Altitude 100 ft / 30 m
Waypoints 5
Social Downloads 25
Likes 0
Share

Download

Looking for another format? Having issues loading an existing format? Contact us
Advertisement - Login to hide

Notes

Departing runway 21 KORF. Arriving runway 9 KECG.

Route

KORF +36.83_-076.26 +36.54_-076.17 +36.26_-076.07 KECG

ID Type Via Altitude (ft/m) Position (lat/lon) Dist (leg/tot) Name
O KORF APT - 0 / 0 36.88586 / -76.20829 - / 0 nm
+36.83_-076.26 LATLON - 100 / 30 36.82858 / -76.26355 4 / 4 nm
+36.54_-076.17 LATLON - 100 / 30 36.54300 / -76.16681 17 / 22 nm
+36.26_-076.07 LATLON - 100 / 30 36.25742 / -76.07007 17 / 39 nm
O KECG APT - 0 / 0 36.26051 / -76.15974 4 / 44 nm

Altitude Profile

Advertisement - Login to hide

KORF

Details ICAO KORF (ORF)
Name Norfolk
Region United States
Timezone America/New_York (UTC-4.0)
Stats Elevation 24 ft / 7 m (AMSL)
Location 36.894200° -76.202200°
Runways 2
Magnetic Variation 10.968° W

METAR

KORF 262351Z 32009G18KT 280V350 10SM OVC080 16/06 A2963 RMK AO2 SLP032 T01610056 10211 20161 53025 $

Decode

TAF

TAF KORF 262328Z 2700/2724 31014G22KT P6SM BKN080 FM270800 31012G20KT P6SM SCT025 BKN045 FM271200 32012G20KT P6SM BKN045

Decode

Departure Runways

ID Width Length Bearing (true/mag) Surface Threshold Overrun Markings Lighting
05 151 ft / 46 m 9,012 ft / 2,747 m 37.69° / 48.65° ASPHALT 1,001 ft / 305 m 197 ft / 60 m PREC-APP CENTERLINE EDGE THRESHOLD MALSR
14 151 ft / 46 m 4,880 ft / 1,487 m 128.11° / 139.08° ASPHALT 217 ft / 66 m 0 ft / 0 m APP EDGE THRESHOLD REIL-OMNI
23 151 ft / 46 m 9,012 ft / 2,747 m 217.70° / 228.66° ASPHALT 0 ft / 0 m 200 ft / 61 m PREC-APP CENTERLINE EDGE THRESHOLD MALSR
32 151 ft / 46 m 4,880 ft / 1,487 m 308.12° / 319.08° ASPHALT 0 ft / 0 m 0 ft / 0 m APP EDGE THRESHOLD REIL-OMNI

KECG

Details ICAO KECG (ECG)
Name Elizabeth City Regional Airport
Region United States
Timezone America/New_York (UTC-4.0)
Stats Elevation 10 ft / 3 m (AMSL)
Location 36.260900° -76.172000°
Runways 1
Magnetic Variation 10.878° W

METAR

KECG 262354Z 27015G20KT 10SM BKN065 17/08 A2963 RMK AO2 SLP033 T01720078 10228 20167 53019

Decode

TAF

TAF TAF KECG 262328Z 2700/2724 29012G20KT P6SM SCT080 FM270200 31014G22KT P6SM BKN060 FM270800 30012G20KT P6SM SCT025 BKN045 FM271300 31014G22KT P6SM BKN045

Decode

Destination Runways

ID Width Length Bearing (true/mag) Surface Threshold Overrun Markings Lighting
10 150 ft / 46 m 7,204 ft / 2,196 m 92.41° / 103.29° CONCRETE 0 ft / 0 m 0 ft / 0 m APP CENTERLINE EDGE THRESHOLD
28 150 ft / 46 m 7,204 ft / 2,196 m 272.43° / 283.30° CONCRETE 0 ft / 0 m 0 ft / 0 m APP CENTERLINE EDGE THRESHOLD TDZ REIL-OMNI

Popular Alternatives